Weather History for Keahole Point, HI

Change the Weather History Date:

Tuesday, January 15, 2013

  Actual Average Record
Temperature  
Mean Temperature 74 °F -  
Max Temperature 78 °F 79 °F 86 °F (1984)
Min Temperature 71 °F 66 °F 60 °F (1993)
Cooling Degree Days 10    
Growing Degree Days 24 (Base 50)    
Moisture  
Dew Point 68 °F    
Average Humidity 77    
Maximum Humidity 94    
Minimum Humidity 67    
Precipitation  
Precipitation 0.03 in - - ()
Sea Level Pressure  
Sea Level Pressure 29.90 in    
Wind  
Wind Speed 7 mph (WNW)    
Max Wind Speed 10 mph    
Max Gust Speed -    
Visibility 10 miles    
Events Rain    
Averages and records for this station are not official NWS values.
T = Trace of Precipitation, MM = Missing Value Source: NWS Daily Summary

Daily Weather History Graph

Daily Weather History Graph

Search for Another Location

Airport:

Trip Planner

Search our weather history database for the weather conditions in past years. The results will help you decide how hot, cold, wet, or windy it might be!

Date:

Astronomy

Jan. 15, 2013 Rise Set
Actual Time 7:01 AM HST 6:06 PM HST
Civil Twilight 6:38 AM HST 6:29 PM HST
Nautical Twilight 6:11 AM HST 6:56 PM HST
Astronomical Twilight 5:44 AM HST 7:23 PM HST
Moon 9:55 AM HST (1/15) 10:20 PM HST (1/15)
Length of Visible Light 11h 51m
Length of Day
11h 04m
Waxing Crescent, 21% of the Moon is Illuminated
Jan 15
Waxing Crescent
Jan 18
First Quarter
Jan 26
Full
Feb 3
Last Quarter
Feb 9
New

Hourly Weather History & Observations

Time (HST) Temp. Dew Point Humidity Pressure Visibility Wind Dir Wind Speed Gust Speed Precip Events Conditions
12:38 AM - - N/A% 29.90 in 10.0 mi SE 8.1 mph - N/A   Overcast
12:53 AM - - N/A% 29.91 in 10.0 mi SSE 5.8 mph - N/A   Overcast
1:02 AM - - N/A% 29.90 in 10.0 mi SSE 5.8 mph - N/A   Overcast
1:13 AM - - N/A% 29.90 in 10.0 mi South 9.2 mph - N/A   Overcast
1:43 AM - - N/A% 29.89 in 10.0 mi West 10.4 mph - N/A   Overcast
1:53 AM - - N/A% 29.90 in 10.0 mi West 10.4 mph - N/A   Overcast
2:13 AM - - N/A% 29.88 in 10.0 mi West 8.1 mph - N/A   Overcast
2:48 AM - - N/A% 29.88 in 10.0 mi WNW 8.1 mph - N/A   Overcast
2:53 AM - - N/A% 29.89 in 10.0 mi WNW 9.2 mph - N/A   Overcast
3:23 AM - - N/A% 29.88 in 10.0 mi East 4.6 mph - 0.00 in   Overcast
3:50 AM - - N/A% 29.88 in 10.0 mi ENE 9.2 mph - 0.00 in   Overcast
3:53 AM - - N/A% 29.89 in 10.0 mi NE 9.2 mph - 0.00 in   Overcast
4:00 AM - - N/A% 29.88 in 10.0 mi NE 10.4 mph - 0.01 in   Overcast
4:53 AM - - N/A% 29.90 in 10.0 mi NE 4.6 mph - 0.02 in   Overcast
5:53 AM 71.6 °F 68.0 °F 88% 29.89 in 10.0 mi Calm Calm - 0.00 in Rain Light Rain
6:53 AM 71.6 °F 69.1 °F 92% 29.92 in 10.0 mi Calm Calm - N/A   Overcast
7:53 AM 71.6 °F 68.0 °F 88% 29.93 in 10.0 mi Calm Calm - 0.01 in   Overcast
8:33 AM 71.6 °F 69.8 °F 94% 29.93 in 10.0 mi WNW 4.6 mph - N/A   Overcast
8:53 AM 73.4 °F 69.1 °F 86% 29.94 in 10.0 mi West 3.5 mph - N/A   Mostly Cloudy
9:32 AM 73.4 °F 66.2 °F 78% 29.94 in 10.0 mi West 6.9 mph - N/A   Overcast
9:43 AM 73.4 °F 66.2 °F 78% 29.94 in 10.0 mi NW 4.6 mph - N/A   Overcast
10:15 AM 75.2 °F 68.0 °F 78% 29.93 in 10.0 mi NW 5.8 mph - N/A   Mostly Cloudy
10:53 AM 75.2 °F 68.7 °F 80% 29.94 in 10.0 mi NNW 8.1 mph - N/A   Mostly Cloudy
11:53 AM 77.0 °F 68.7 °F 75% 29.90 in 10.0 mi WNW 9.2 mph - N/A   Mostly Cloudy
11:55 AM 78.8 °F 68.0 °F 69% 29.89 in 10.0 mi WNW 9.2 mph - N/A   Scattered Clouds
12:53 PM 78.8 °F 68.0 °F 69% 29.87 in 10.0 mi West 8.1 mph - N/A   Clear
1:53 PM 78.8 °F 68.0 °F 69% 29.86 in 10.0 mi West 8.1 mph - N/A   Scattered Clouds
2:53 PM 78.8 °F 66.9 °F 67% 29.86 in 10.0 mi WNW 8.1 mph - N/A   Clear
3:53 PM 78.8 °F 68.0 °F 69% 29.86 in 10.0 mi WNW 6.9 mph - N/A   Mostly Cloudy
4:53 PM 78.8 °F 68.0 °F 69% 29.88 in 10.0 mi NW 9.2 mph - N/A   Overcast
5:14 PM 77.0 °F 68.0 °F 74% 29.88 in 10.0 mi NW 6.9 mph - N/A   Overcast
5:32 PM 77.0 °F 68.0 °F 74% 29.88 in 10.0 mi Variable 4.6 mph - N/A   Overcast
5:53 PM 77.0 °F 68.0 °F 74% 29.89 in 10.0 mi West 4.6 mph - N/A   Overcast
6:53 PM - - N/A% 29.91 in 10.0 mi WSW 4.6 mph - N/A   Overcast
7:53 PM - - N/A% 29.93 in 10.0 mi Calm Calm - N/A   Overcast
8:53 PM - - N/A% 29.94 in 10.0 mi West 5.8 mph - N/A   Mostly Cloudy
9:07 PM - - N/A% 29.93 in 10.0 mi West 4.6 mph - N/A   Mostly Cloudy
9:53 PM - - N/A% 29.93 in 10.0 mi Calm Calm - N/A   Overcast
10:08 PM - - N/A% 29.92 in 10.0 mi West 3.5 mph - N/A   Overcast
10:19 PM - - N/A% 29.92 in 10.0 mi West 5.8 mph - N/A   Overcast
10:53 PM - - N/A% 29.92 in 10.0 mi North 3.5 mph - N/A   Overcast
11:03 PM - - N/A% 29.92 in 10.0 mi NE 4.6 mph - N/A   Overcast
11:29 PM - - N/A% 29.91 in 10.0 mi Calm Calm - 0.00 in   Overcast
11:53 PM - - N/A% 29.92 in 10.0 mi Calm Calm - 0.00 in   Mostly Cloudy